Date,TemperatureHighF,TemperatureAvgF,TemperatureLowF,DewpointHighF,DewpointAvgF,DewpointLowF,HumidityHigh,HumidityAvg,HumidityLow,PressureMaxIn,PressureMinIn,WindSpeedMaxMPH,WindSpeedAvgMPH,GustSpeedMaxMPH,PrecipitationSumIn
2012-1-1,45.0,36.4,28.0,42.0,33.9,23.0,100,91,67,29.95,29.52,21,9,31,0.09
2012-1-2,28.0,24.0,21.0,28.0,23.7,20.0,100,98,94,30.23,29.93,15,8,25,0.01
2012-1-3,25.0,19.9,13.0,21.0,16.0,10.0,100,85,70,30.32,30.08,8,2,17,0.07
2012-1-4,38.0,28.8,21.0,30.0,21.8,14.0,90,75,58,30.11,29.85,8,2,16,0.07
2012-1-5,44.0,32.9,21.0,36.0,28.8,21.0,100,86,63,29.98,29.72,6,1,13,0.06
2012-1-6,54.0,43.1,35.0,41.0,36.4,33.0,100,78,56,29.72,29.65,5,1,12,0.01
2012-1-7,45.0,36.7,25.0,38.0,31.7,25.0,100,83,65,30.19,29.68,11,4,20,0.00
2012-1-8,41.0,31.2,23.0,34.0,28.2,23.0,100,90,66,30.33,30.19,3,0,8,0.00
2012-1-9,44.0,32.7,23.0,32.0,26.8,-99.9,100,83,54,30.25,29.92,9,-6,14,0.00
2012-1-10,50.0,34.6,24.0,38.0,31.1,24.0,100,89,60,30.04,29.82,6,1,11,0.00
2012-1-11,47.0,36.2,27.0,40.0,25.9,-99.9,100,81,61,29.81,29.44,3,-34,6,0.03
2012-1-12,39.0,31.4,17.0,39.0,31.0,16.0,100,98,91,29.43,29.31,6,2,19,0.03
2012-1-13,24.0,20.3,18.0,24.0,19.4,17.0,100,96,92,29.98,29.34,11,6,21,0.01
2012-1-14,22.0,15.3,3.0,17.0,12.0,1.0,94,87,72,30.20,29.98,6,1,13,0.06
2012-1-15,25.0,12.2,-1.0,18.0,7.1,-4.0,95,80,64,30.37,30.12,7,2,16,0.05
2012-1-16,47.0,35.9,22.0,46.0,32.4,17.0,100,87,73,30.12,29.67,7,3,18,0.19
2012-1-17,48.0,37.1,24.0,48.0,37.0,23.0,100,100,96,30.09,29.46,18,5,27,0.49
2012-1-18,26.0,22.6,18.0,24.0,18.0,15.0,100,83,67,30.25,29.91,10,3,19,0.16
2012-1-19,28.0,19.9,12.0,26.0,16.2,8.0,100,86,70,30.12,29.75,16,5,25,0.02
2012-1-20,17.0,10.6,1.0,14.0,6.0,-99.9,94,88,74,30.21,30.01,4,-20,10,0.00
2012-1-21,24.0,15.6,7.0,14.0,10.1,5.0,93,80,56,30.22,30.01,3,0,8,0.26
2012-1-22,40.0,26.5,9.0,40.0,25.9,6.0,100,97,88,30.16,29.59,10,4,20,0.08
2012-1-23,47.0,38.9,31.0,47.0,37.8,26.0,100,96,80,29.85,29.38,17,8,33,0.42
2012-1-24,33.0,29.6,23.0,28.0,25.8,23.0,100,86,78,30.31,29.85,13,5,22,0.01
2012-1-25,32.0,28.1,21.0,31.0,27.0,21.0,100,96,85,30.33,30.07,6,1,12,0.00
2012-1-26,35.0,32.5,30.0,35.0,32.5,30.0,100,100,100,30.09,29.54,4,1,7,0.54
2012-1-27,42.0,35.9,30.0,36.0,31.6,27.0,100,86,60,29.95,29.54,10,4,18,0.34
2012-1-28,34.0,31.9,28.0,34.0,27.0,19.0,100,83,56,30.08,29.75,18,6,32,0.01
2012-1-29,32.0,27.7,18.0,31.0,23.4,15.0,100,84,72,30.20,29.90,15,4,26,0.06
2012-1-30,22.0,17.1,14.0,21.0,15.9,13.0,100,95,83,30.20,30.16,2,0,4,0.06
2012-2-4,40.0,35.2,30.0,35.0,30.2,-99.9,100,91,78,30.16,30.12,1,0,6,0.00
2012-2-5,48.0,32.5,21.0,36.0,28.3,21.0,100,87,53,30.25,30.13,8,1,13,0.01
2012-2-6,35.0,29.4,25.0,33.0,28.7,25.0,100,97,89,30.20,30.08,9,2,16,0.01
2012-2-7,37.0,32.7,30.0,35.0,30.5,27.0,100,92,75,30.30,30.13,5,1,11,0.00
2012-2-8,37.0,29.7,21.0,26.0,20.5,-99.9,98,73,58,30.32,30.24,18,2,157,0.00
2012-2-9,36.0,27.5,21.0,24.0,16.5,-99.9,98,76,55,30.25,30.08,9,2,157,0.00
2012-2-10,34.0,29.6,16.0,33.0,19.4,-99.9,100,83,78,30.08,29.81,12,3,157,0.01
2012-2-11,22.0,16.2,10.0,19.0,10.2,6.0,88,77,66,30.28,30.00,15,5,24,0.00
2012-2-12,31.0,24.2,16.0,19.0,14.9,10.0,82,68,49,30.23,30.16,14,6,24,0.01
2012-2-13,34.0,26.0,16.0,27.0,13.7,-99.9,96,63,45,30.16,29.90,7,-13,18,0.01
2012-2-14,33.0,30.7,28.0,32.0,29.7,28.0,100,96,89,30.00,29.81,5,1,11,0.06
2012-2-15,43.0,36.6,33.0,39.0,34.8,31.0,100,93,78,30.12,29.96,9,3,16,0.14
2012-2-16,46.0,38.5,28.0,42.0,34.8,-99.9,100,92,73,30.08,29.90,12,3,19,0.24
2012-2-17,47.0,37.9,25.0,35.0,22.1,-99.9,100,70,44,30.13,29.96,8,2,16,0.00
2012-2-18,42.0,33.2,24.0,35.0,25.8,18.0,98,76,45,30.18,29.96,11,4,20,0.00
2012-2-19,37.0,26.7,19.0,22.0,19.9,18.0,98,77,50,30.18,30.09,6,0,12,0.00
2012-2-20,42.0,28.7,15.0,28.0,23.1,15.0,100,81,54,30.30,29.99,11,2,15,0.00
2012-2-21,42.0,37.5,33.0,42.0,34.3,27.0,100,89,68,29.98,29.60,11,3,25,0.15
2012-2-22,37.0,33.9,29.0,36.0,32.9,29.0,100,96,83,29.67,29.39,4,0,11,0.42
2012-2-23,36.0,31.8,27.0,36.0,31.8,27.0,100,100,100,29.57,29.41,3,0,7,0.15
2012-2-24,36.0,32.6,28.0,35.0,32.2,24.0,100,99,86,29.83,29.27,15,6,22,0.39
2012-2-25,30.0,25.0,15.0,25.0,21.2,15.0,100,86,70,30.30,29.83,13,6,24,0.07
2012-2-26,44.0,29.5,13.0,31.0,22.8,12.0,100,78,57,30.31,30.02,12,4,24,0.08
2012-2-27,39.0,33.7,23.0,29.0,24.4,22.0,99,70,55,30.45,30.10,16,6,30,0.00
2012-2-28,44.0,32.8,20.0,35.0,27.1,20.0,100,81,57,30.45,29.96,10,2,16,0.01
2012-2-29,66.0,47.4,36.0,58.0,38.1,27.0,100,77,26,29.94,29.39,15,6,29,0.66
2012-3-1,40.0,36.7,30.0,36.0,34.0,30.0,100,90,85,29.82,29.57,13,4,22,0.01
2012-3-2,47.0,37.2,30.0,47.0,36.0,30.0,100,96,84,29.81,29.13,21,4,31,0.14
2012-3-3,34.0,31.5,29.0,29.0,27.3,25.0,97,84,73,29.76,29.52,16,8,27,0.01
2012-3-4,35.0,30.6,28.0,30.0,26.9,25.0,98,86,74,29.87,29.74,9,3,14,0.04
2012-3-5,35.0,27.8,22.0,26.0,20.3,16.0,96,74,53,30.33,29.87,10,3,17,0.01
2012-3-6,66.0,46.6,30.0,42.0,32.8,25.0,83,61,41,30.31,29.95,18,6,26,0.01
2012-3-7,67.0,58.3,49.0,50.0,41.6,32.0,66,54,45,30.06,29.85,12,6,34,0.00
2012-3-8,62.0,45.3,30.0,59.0,39.8,24.0,100,82,51,30.16,29.76,17,7,29,0.48
2012-3-9,36.0,32.4,24.0,31.0,20.4,15.0,86,61,46,30.51,30.15,18,7,27,0.01
2012-3-10,54.0,37.3,21.0,31.0,23.4,17.0,95,60,35,30.50,30.23,11,4,21,0.00
2012-3-11,67.0,49.4,29.0,41.0,31.5,-99.9,92,57,26,30.29,30.11,7,2,14,0.00
2012-3-12,69.0,58.3,50.0,61.0,53.3,40.0,100,85,56,30.11,29.71,13,6,26,0.22
2012-3-13,66.0,54.5,42.0,54.0,41.4,24.0,100,70,22,30.08,29.84,13,3,20,0.03
2012-3-14,81.0,60.6,38.0,62.0,50.0,34.0,100,72,41,30.08,29.93,7,2,20,0.00
2012-3-15,81.0,70.1,58.0,67.0,62.3,58.0,100,78,52,30.00,29.91,10,2,19,0.00
2012-3-16,79.0,65.8,54.0,64.0,59.5,54.0,100,83,55,30.07,29.98,8,1,13,0.00
2012-3-17,77.0,64.8,50.0,63.0,57.0,50.0,100,78,51,30.13,30.01,12,3,18,0.00
2012-3-18,76.0,64.7,57.0,63.0,59.6,57.0,100,85,55,30.09,29.98,5,1,11,0.02
2012-3-19,81.0,66.8,54.0,66.0,61.0,54.0,100,83,51,30.04,29.94,8,2,16,0.19
2012-3-20,83.0,69.4,59.0,63.0,54.5,-99.9,92,66,37,30.09,29.96,12,-14,19,6.53
2012-3-21,86.0,70.6,55.0,62.0,58.0,55.0,100,69,38,30.13,30.02,6,2,13,0.00
2012-3-22,83.0,67.5,55.0,62.0,57.7,-99.9,100,76,43,30.11,29.99,7,-6,14,0.00
2012-3-23,67.0,60.8,51.0,66.0,60.6,51.0,100,99,93,30.02,29.79,3,0,11,0.78
2012-3-24,64.0,56.3,51.0,62.0,55.3,51.0,100,97,82,29.87,29.74,9,1,14,0.02
2012-3-25,72.0,57.7,48.0,57.0,52.3,42.0,100,84,56,30.06,29.86,10,3,20,0.00
2012-3-26,51.0,44.1,36.0,42.0,31.7,26.0,93,63,40,30.34,30.06,4,1,14,0.00
2012-3-27,61.0,46.6,32.0,42.0,31.1,21.0,80,56,38,30.32,29.83,13,5,22,0.00
2012-3-28,67.0,58.9,43.0,56.0,45.5,38.0,99,64,37,29.98,29.75,20,6,33,0.00
2012-3-29,57.0,44.7,32.0,41.0,36.5,32.0,100,76,43,30.11,29.99,5,1,11,0.00
2012-3-30,47.0,42.9,39.0,47.0,41.2,36.0,100,94,76,29.99,29.68,6,2,17,0.38
2012-3-31,50.0,41.9,37.0,43.0,39.4,36.0,100,92,74,29.97,29.84,4,1,9,0.01
2012-4-1,69.0,52.9,39.0,58.0,48.5,39.0,100,86,64,29.88,29.64,5,2,14,0.00
2012-4-2,62.0,51.5,42.0,49.0,42.8,37.0,94,74,49,29.97,29.75,7,2,14,0.00
2012-4-3,77.0,56.9,45.0,62.0,46.7,37.0,88,70,51,29.94,29.75,9,2,12,0.00
2012-4-4,65.0,55.0,42.0,51.0,39.7,30.0,94,61,27,29.94,29.82,8,1,16,0.00
2012-4-5,56.0,46.0,37.0,39.0,34.2,29.0,97,66,42,30.10,29.87,7,1,16,0.00
2012-4-6,59.0,44.6,32.0,36.0,28.8,24.0,91,57,27,30.28,30.10,7,1,12,0.00
2012-4-7,67.0,48.6,27.0,41.0,29.8,19.0,100,60,16,30.30,30.10,6,1,13,0.00
2012-4-8,62.0,54.2,46.0,49.0,35.8,23.0,100,56,23,30.19,30.05,16,7,29,0.03
2012-4-9,61.0,52.2,42.0,44.0,33.1,23.0,98,53,25,30.08,29.87,19,6,27,0.02
2012-4-10,43.0,37.2,28.0,30.0,25.2,21.0,91,62,50,30.07,29.93,19,6,26,0.00
2012-4-11,54.0,39.9,26.0,35.0,30.1,25.0,100,71,44,30.23,30.06,11,3,17,0.00
2012-4-12,61.0,42.8,25.0,41.0,31.3,25.0,100,70,32,30.27,30.12,9,2,16,0.00
2012-4-13,65.0,48.8,28.0,40.0,32.5,28.0,100,61,26,30.22,30.04,8,2,19,0.00
2012-4-14,63.0,57.0,49.0,61.0,50.8,35.0,100,81,52,30.04,29.86,7,2,14,0.05
2012-4-15,78.0,67.0,57.0,66.0,60.2,-99.9,100,82,63,29.87,29.69,12,4,21,0.37
2012-4-16,70.0,58.1,47.0,64.0,51.4,40.0,100,79,59,30.16,29.58,18,7,34,0.51
2012-4-17,60.0,47.1,34.0,43.0,38.5,34.0,100,75,45,30.35,30.16,6,1,12,0.01
2012-4-18,69.0,52.0,32.0,47.0,40.4,32.0,100,69,39,30.29,29.95,8,2,18,0.00
2012-4-19,78.0,64.7,52.0,54.0,49.0,44.0,94,60,33,29.98,29.75,8,2,17,0.00
2012-4-20,68.0,54.2,41.0,55.0,47.1,41.0,100,80,52,29.89,29.64,12,4,20,0.31
2012-4-21,57.0,45.7,36.0,41.0,33.9,25.0,100,68,32,29.98,29.89,8,2,17,0.00
2012-4-22,53.0,44.7,37.0,37.0,29.9,18.0,85,58,36,30.01,29.95,9,2,20,0.00
2012-4-23,55.0,44.9,31.0,32.0,24.2,15.0,95,49,22,29.99,29.73,19,6,33,0.00
2012-4-24,61.0,48.5,34.0,38.0,29.6,23.0,85,53,24,29.73,29.67,14,4,25,0.00
2012-4-25,53.0,46.3,35.0,53.0,42.1,28.0,100,86,60,29.76,29.66,2,0,7,0.24
2012-4-26,58.0,49.5,38.0,53.0,43.4,24.0,100,82,37,30.12,29.58,19,6,26,0.11
2012-4-27,56.0,43.8,27.0,31.0,24.6,19.0,96,50,26,30.25,30.09,7,1,11,0.00
2012-4-28,49.0,44.3,39.0,43.0,39.1,31.0,100,83,50,30.19,30.05,6,1,14,0.34
2012-4-29,64.0,48.8,34.0,46.0,37.8,-99.9,100,72,38,30.25,30.10,7,2,14,0.25
2012-4-30,63.0,53.7,43.0,63.0,52.8,39.0,100,97,74,30.10,29.84,5,1,10,0.95
2012-5-1,66.0,58.5,50.0,62.0,56.6,50.0,100,94,78,30.03,29.85,6,1,12,0.11
2012-5-2,82.0,69.7,58.0,71.0,64.3,58.0,100,85,56,29.94,29.82,13,2,18,0.10
2012-5-3,86.0,75.8,61.0,72.0,66.9,61.0,100,76,52,29.95,29.83,7,2,20,0.01
2012-5-4,84.0,71.7,62.0,69.0,64.9,61.0,100,81,54,29.93,29.81,8,2,17,0.02
2012-5-5,74.0,66.7,62.0,66.0,63.9,61.0,100,91,72,30.02,29.88,3,1,8,0.01
2012-5-6,78.0,65.4,54.0,61.0,53.4,-99.9,100,70,42,30.05,29.83,5,1,11,0.00
2012-5-7,67.0,55.5,50.0,63.0,51.8,34.0,100,90,37,29.92,29.80,5,1,13,0.25
2012-5-8,72.0,58.4,49.0,60.0,51.4,45.0,100,82,43,29.85,29.80,10,2,20,0.00
2012-5-9,62.0,54.3,45.0,53.0,47.1,36.0,100,78,55,29.90,29.80,12,4,22,0.00
2012-5-10,67.0,52.0,37.0,47.0,33.0,-99.9,100,63,26,30.02,29.89,9,2,16,0.00
2012-5-11,77.0,59.0,36.0,52.0,39.8,31.0,100,59,20,30.14,30.02,10,2,16,0.00
2012-5-12,70.0,62.7,54.0,60.0,53.6,46.0,93,73,55,30.20,30.11,10,2,13,0.00
2012-5-13,72.0,60.5,51.0,62.0,54.0,-99.9,100,82,60,30.19,30.07,5,1,11,0.00
2012-5-14,78.0,62.2,46.0,59.0,46.2,36.0,100,63,26,30.09,29.99,8,1,12,0.00
2012-5-15,84.0,65.5,43.0,51.0,45.1,41.0,100,57,22,29.99,29.81,9,2,20,0.00
2012-5-16,69.0,61.0,46.0,60.0,43.0,33.0,100,56,27,30.10,29.81,10,2,16,0.03
2012-5-17,72.0,57.5,40.0,49.0,40.1,-99.9,100,61,29,30.17,30.05,5,1,10,0.01
2012-5-18,82.0,64.4,45.0,51.0,43.4,39.0,91,51,23,30.11,29.98,6,1,11,0.00
2012-5-19,88.0,68.8,47.0,62.0,52.2,46.0,100,62,27,30.09,29.99,7,1,14,0.00
2012-5-20,91.0,76.8,60.0,67.0,57.1,-99.9,87,55,28,30.09,29.92,13,2,19,0.00
2012-5-21,72.0,60.6,52.0,64.0,56.4,50.0,100,87,62,30.08,29.98,14,4,19,0.27
2012-5-22,74.0,59.3,44.0,54.0,48.8,44.0,100,71,44,30.04,29.90,9,2,13,0.01
2012-5-23,81.0,64.1,43.0,61.0,50.9,43.0,100,68,36,29.92,29.77,7,2,13,0.00
2012-5-24,87.0,75.7,61.0,69.0,56.5,46.0,99,57,26,29.85,29.65,15,5,25,0.00
2012-5-25,83.0,76.3,65.0,66.0,57.3,48.0,72,53,32,30.09,29.74,12,4,19,0.00
2012-5-26,88.0,74.4,62.0,65.0,54.8,-99.9,82,56,44,30.18,30.02,9,1,11,0.00
2012-5-27,96.0,80.5,65.0,72.0,59.1,-99.9,81,54,29,30.07,29.87,9,2,13,0.00
2012-5-28,93.0,82.6,70.0,69.0,63.2,53.0,83,56,29,29.88,29.71,14,3,18,0.00
2012-5-29,86.0,77.1,64.0,65.0,53.5,44.0,84,48,23,29.85,29.71,13,4,21,0.00
2012-5-30,74.0,61.5,48.0,58.0,49.1,46.0,100,67,40,29.91,29.82,12,3,19,0.00
2012-5-31,63.0,52.8,46.0,54.0,49.3,45.0,100,89,67,29.98,29.78,5,1,11,0.54
2012-6-1,54.0,50.6,48.0,53.0,49.8,46.0,100,97,85,29.79,29.66,15,4,20,1.02
2012-6-2,75.0,61.5,47.0,54.0,48.5,39.0,100,68,28,29.76,29.69,14,4,25,0.03
2012-6-3,80.0,67.4,54.0,59.0,50.9,-99.9,100,64,27,29.80,29.76,13,4,20,0.01
2012-6-4,78.0,66.6,56.0,60.0,53.7,47.0,97,67,33,29.88,29.76,9,2,14,0.00
2012-6-5,72.0,62.6,52.0,56.0,51.1,46.0,100,69,40,29.98,29.88,5,1,14,0.00
2012-6-6,78.0,63.6,46.0,56.0,50.1,43.0,100,67,31,30.06,29.98,7,1,12,0.00
2012-6-7,82.0,64.5,48.0,58.0,45.3,-99.9,100,61,30,30.10,30.04,10,2,17,0.00
2012-6-8,87.0,68.0,46.0,60.0,49.7,45.0,100,62,24,30.07,29.90,7,1,12,0.00
2012-6-9,90.0,79.1,57.0,59.0,54.5,50.0,96,47,27,29.96,29.86,9,2,17,0.00
2012-6-10,91.0,75.9,57.0,64.0,58.1,-99.9,100,62,31,29.99,29.90,6,1,16,0.00
2012-6-11,86.0,75.0,64.0,74.0,67.3,60.0,100,78,57,29.91,29.77,8,1,16,0.06
2012-6-12,75.0,68.8,56.0,70.0,54.7,45.0,100,64,37,30.09,29.80,13,4,22,0.07
2012-6-13,76.0,61.9,46.0,52.0,45.3,36.0,100,62,26,30.18,30.09,7,1,12,0.01
2012-6-14,85.0,68.0,48.0,55.0,47.6,36.0,99,57,18,30.16,30.04,7,1,11,0.00
2012-6-15,90.0,73.5,54.0,61.0,53.7,47.0,100,57,25,30.12,30.04,5,1,11,0.00
2012-6-16,92.0,74.6,58.0,72.0,64.0,55.0,100,72,39,30.09,29.89,9,2,21,0.05
2012-6-17,84.0,72.6,65.0,74.0,63.8,-99.9,100,80,35,29.91,29.81,10,3,21,0.33
2012-6-18,91.0,77.3,61.0,75.0,68.0,61.0,100,77,48,29.85,29.72,11,2,21,0.01
2012-6-19,93.0,83.6,74.0,73.0,68.5,65.0,76,61,45,29.99,29.85,8,2,19,0.01
2012-6-20,93.0,82.0,68.0,68.0,65.2,62.0,91,59,37,30.06,29.90,8,2,19,0.00
2012-6-21,89.0,75.4,62.0,72.0,66.7,62.0,100,76,53,29.94,29.87,18,2,21,0.02
2012-6-22,84.0,70.7,56.0,66.0,57.0,50.0,100,68,33,29.98,29.91,11,2,17,0.01
2012-6-23,87.0,68.0,55.0,67.0,45.6,-99.9,100,61,31,30.02,29.96,5,-55,8,0.01
2012-6-24,-200.0,0.0,200.0,-99.9,-99.9,-99.9,0,0,100,30.01,29.90,0,-999,0,0.00
2012-6-25,79.0,67.7,60.0,73.0,53.3,-99.9,100,73,52,30.01,29.97,10,2,12,0.16
2012-6-26,85.0,67.4,49.0,63.0,49.6,41.0,100,62,25,30.07,29.92,6,1,9,0.00
2012-6-27,90.0,72.4,52.0,67.0,53.1,48.0,100,59,24,30.01,29.80,8,2,14,0.00
2012-6-28,103.0,86.2,67.0,78.0,67.4,55.0,75,55,40,29.83,29.71,12,3,17,0.00
2012-6-29,88.0,78.7,66.0,74.0,68.1,57.0,100,74,38,29.98,29.79,13,1,28,0.07
2012-6-30,91.0,81.1,67.0,76.0,71.8,67.0,100,76,51,29.86,29.79,9,2,12,0.10
2012-7-1,95.0,77.8,66.0,79.0,69.7,62.0,100,79,43,29.98,29.84,11,1,13,0.00
2012-7-2,69.0,66.1,65.0,69.0,66.1,65.0,100,100,100,29.96,29.93,0,0,0,0.00
2012-7-7,96.0,84.8,76.0,75.0,71.5,69.0,84,66,49,29.95,29.88,9,4,11,0.00
2012-7-8,89.0,78.9,69.0,73.0,65.1,47.0,97,67,24,30.03,29.94,9,2,13,0.00
2012-7-9,92.0,75.5,58.0,72.0,60.6,57.0,100,66,34,30.04,29.96,11,2,14,0.00
2012-7-10,90.0,74.6,58.0,66.0,57.5,48.0,100,62,25,30.08,30.01,12,1,14,0.00
2012-7-11,90.0,76.7,61.0,63.0,54.7,48.0,94,53,25,30.13,30.05,6,1,10,0.00
2012-7-12,92.0,76.6,59.0,70.0,52.4,-99.9,89,51,25,30.11,30.03,6,1,8,0.00
2012-7-13,95.0,79.4,65.0,72.0,63.8,56.0,98,63,31,30.08,29.98,8,1,13,0.00
2012-7-14,96.0,79.4,69.0,76.0,68.8,61.0,98,73,35,30.06,29.94,9,2,14,0.00
2012-7-15,94.0,80.3,67.0,76.0,68.7,63.0,100,72,41,30.05,29.96,11,2,20,0.00
2012-7-16,98.0,81.7,63.0,78.0,67.2,61.0,100,68,31,30.01,29.83,12,2,14,0.00
2012-7-17,100.0,85.9,71.0,79.0,71.8,67.0,100,68,36,29.86,29.76,13,3,14,0.05
2012-7-18,96.0,79.7,73.0,80.0,72.0,-99.9,100,85,49,29.95,29.81,7,0,17,0.33
2012-7-19,84.0,74.5,69.0,78.0,73.3,69.0,100,97,75,29.96,29.84,5,0,17,1.16
2012-7-20,84.0,74.6,64.0,73.0,64.4,58.0,100,75,43,30.04,29.89,6,1,12,0.02
2012-7-21,87.0,73.9,60.0,73.0,65.4,60.0,100,78,43,30.10,30.01,6,1,11,0.02
2012-7-22,90.0,77.8,67.0,75.0,68.2,-99.9,100,80,50,30.10,30.02,6,1,11,0.00
2012-7-23,96.0,82.9,71.0,78.0,74.0,70.0,100,77,51,30.03,29.85,9,2,14,0.27
2012-7-24,83.0,76.9,71.0,77.0,73.0,67.0,100,89,64,30.01,29.84,6,1,14,0.54
2012-7-25,91.0,77.9,68.0,82.0,71.6,63.0,100,82,64,29.94,29.61,11,2,14,0.07
2012-7-26,84.0,78.8,69.0,77.0,73.8,69.0,100,86,70,29.75,29.57,11,2,17,0.32
2012-7-27,84.0,73.6,64.0,77.0,69.1,64.0,100,87,62,29.91,29.72,11,2,14,0.25
2012-7-28,84.0,73.3,64.0,70.0,62.9,53.0,100,75,35,30.08,29.91,10,2,16,0.00
2012-7-29,86.0,71.1,57.0,69.0,61.2,50.0,100,77,29,30.10,29.97,5,1,7,0.00
2012-7-30,89.0,77.3,66.0,73.0,68.2,64.0,100,77,46,30.00,29.87,5,1,8,0.00
2012-7-31,86.0,75.3,64.0,75.0,68.9,64.0,100,82,56,29.98,29.85,15,3,19,0.68
2012-8-1,86.0,73.5,60.0,71.0,63.2,59.0,100,75,43,29.94,29.85,7,1,11,0.13
2012-8-2,89.0,74.9,60.0,78.0,67.7,60.0,100,81,52,29.89,29.80,4,0,8,0.00
2012-8-3,92.0,78.9,64.0,75.0,69.6,64.0,100,77,43,29.89,29.82,6,0,10,0.00
2012-8-4,89.0,76.0,67.0,81.0,70.4,-99.9,100,90,71,29.92,29.78,13,2,26,0.95
2012-8-5,82.0,74.1,62.0,75.0,66.8,53.0,100,80,44,30.12,29.85,15,3,21,0.10
2012-8-6,82.0,67.4,52.0,66.0,58.3,52.0,100,77,39,30.16,30.00,6,1,7,0.01
2012-8-7,88.0,72.6,56.0,74.0,64.1,56.0,100,79,45,30.00,29.88,9,1,11,0.00
2012-8-8,88.0,75.5,63.0,71.0,66.7,63.0,100,77,44,29.96,29.88,7,1,10,0.00
2012-8-9,70.0,66.4,62.0,69.0,66.2,62.0,100,100,90,29.93,29.76,6,0,10,0.19
2012-8-10,65.0,60.6,57.0,63.0,59.0,-99.9,100,98,83,29.87,29.73,13,4,25,0.20
2012-8-11,75.0,67.8,58.0,65.0,62.1,58.0,100,83,67,29.97,29.84,12,4,20,0.20
2012-8-12,77.0,65.5,52.0,67.0,58.4,-99.9,100,83,51,30.02,29.96,5,1,10,0.00
2012-8-13,68.0,64.2,62.0,67.0,64.0,62.0,100,99,94,29.99,29.91,3,0,5,0.46
2012-8-14,62.0,62.0,62.0,62.0,62.0,62.0,100,100,100,29.92,29.88,2,0,5,0.57
2012-8-15,82.0,72.2,60.0,73.0,67.6,60.0,100,87,62,29.94,29.89,5,0,7,0.00
2012-8-16,66.0,65.3,65.0,66.0,65.3,65.0,100,100,100,29.92,29.91,2,0,5,0.00
2012-8-17,74.0,65.4,53.0,58.0,55.3,53.0,100,72,54,29.99,29.94,11,3,14,0.00
2012-8-18,76.0,60.7,45.0,59.0,51.9,45.0,100,77,43,30.02,29.91,5,0,7,0.00
2012-8-19,79.0,64.4,51.0,63.0,55.0,50.0,100,76,39,29.95,29.88,6,1,10,0.00
2012-8-20,79.0,62.1,51.0,68.0,58.3,51.0,100,90,51,29.97,29.91,10,0,16,0.22
2012-8-21,80.0,65.0,50.0,67.0,49.4,-99.9,100,72,37,30.09,29.97,6,1,10,0.01
2012-8-26,73.0,72.1,71.0,73.0,72.1,71.0,100,100,100,29.99,29.97,0,0,0,0.02
2012-8-27,85.0,74.2,62.0,76.0,68.6,59.0,100,85,48,30.03,29.92,11,2,18,0.86
2012-8-28,83.0,69.6,56.0,67.0,61.7,56.0,100,80,49,30.12,30.01,7,1,12,0.02
2012-8-29,83.0,67.8,55.0,68.0,61.1,55.0,100,83,47,30.09,29.99,3,0,6,0.00
2012-8-30,85.0,69.1,54.0,70.0,62.1,54.0,100,81,50,30.07,29.96,5,1,11,0.01
2012-8-31,92.0,75.7,59.0,77.0,69.8,59.0,100,84,58,30.06,29.98,7,1,14,0.01
2012-9-1,80.0,74.9,70.0,78.0,74.3,70.0,100,98,91,30.05,29.95,3,0,8,0.00
2012-9-2,82.0,75.5,69.0,78.0,73.6,69.0,100,94,82,29.97,29.86,6,1,12,0.00
2012-9-3,89.0,77.7,66.0,80.0,73.1,66.0,100,87,63,29.91,29.82,3,0,8,0.00
2012-9-4,87.0,76.3,68.0,76.0,72.1,68.0,100,89,62,29.88,29.81,0,0,0,0.01
2012-9-5,81.0,71.9,65.0,74.0,69.4,65.0,100,93,75,29.89,29.76,9,0,17,0.09
2012-9-6,86.0,73.5,61.0,75.0,65.2,56.0,100,79,40,29.90,29.80,9,1,12,0.02
2012-9-7,83.0,66.4,57.0,71.0,63.6,57.0,100,92,55,29.90,29.70,2,0,10,0.16
2012-9-8,70.0,61.1,54.0,62.0,56.2,52.0,100,86,56,29.84,29.72,8,1,18,0.18
2012-9-9,73.0,61.5,50.0,63.0,55.3,50.0,100,83,50,30.09,29.83,7,1,13,0.16
2012-9-10,75.0,59.7,44.0,65.0,50.2,44.0,100,77,37,30.21,30.09,0,0,3,0.04
2012-9-11,80.0,59.3,50.0,61.0,53.9,50.0,100,86,42,30.19,30.09,3,0,11,0.00
2012-9-12,84.0,76.6,63.0,65.0,61.2,57.0,93,61,41,30.19,30.11,7,0,13,0.00
2012-9-13,83.0,69.1,59.0,66.0,61.7,58.0,100,79,53,30.24,30.14,5,0,10,0.02
2012-9-14,59.0,57.0,56.0,59.0,57.0,56.0,100,100,100,30.26,30.24,0,0,0,0.21
2012-9-15,76.0,64.3,52.0,56.0,52.0,46.0,100,70,36,30.18,30.14,0,0,6,0.00
2012-9-16,79.0,60.6,45.0,60.0,51.5,45.0,100,78,34,30.14,29.98,4,0,10,0.00
2012-9-17,77.0,62.6,49.0,64.0,57.5,49.0,100,86,58,29.99,29.69,4,0,7,0.00
2012-9-18,66.0,56.5,45.0,64.0,52.4,36.0,100,88,46,29.99,29.66,16,1,18,0.25
2012-9-19,68.0,55.0,38.0,53.0,42.5,38.0,100,69,35,30.09,29.90,10,1,18,0.01
2012-9-20,72.0,61.1,48.0,56.0,49.0,43.0,100,67,36,29.93,29.84,11,1,17,0.01
2012-9-21,69.0,53.5,44.0,56.0,47.3,41.0,100,84,36,29.92,29.78,4,0,11,0.11
2012-9-22,55.0,50.7,45.0,51.0,48.4,45.0,100,92,76,30.11,29.76,11,2,22,0.08
2012-9-23,59.0,46.9,37.0,50.0,39.5,-99.9,100,81,47,30.22,30.10,14,2,17,0.01
2012-9-24,67.0,51.2,35.0,44.0,37.1,30.0,100,66,26,30.22,29.92,8,0,16,0.01
2012-9-25,72.0,58.9,45.0,64.0,52.7,41.0,100,81,56,29.93,29.83,6,0,11,0.00
2012-9-26,74.0,64.1,54.0,67.0,57.7,-99.9,100,86,57,30.11,29.85,3,0,8,0.00
2012-9-27,71.0,58.3,47.0,61.0,53.8,47.0,100,86,65,30.16,30.07,3,0,7,0.00
2012-9-28,68.0,56.4,47.0,57.0,52.0,47.0,100,87,61,30.13,30.07,2,0,7,0.00
2012-9-29,74.0,63.5,46.0,59.0,49.2,44.0,100,65,38,30.08,29.93,9,2,14,0.00
2012-9-30,69.0,52.9,39.0,54.0,45.4,39.0,100,80,41,29.95,29.88,4,0,12,0.00
2012-10-1,65.0,52.7,39.0,54.0,47.2,39.0,100,84,57,29.92,29.79,4,0,7,0.00
2012-10-2,68.0,60.2,53.0,59.0,53.5,50.0,100,80,54,29.87,29.77,5,0,14,0.01
2012-10-3,61.0,59.0,57.0,60.0,58.8,57.0,100,99,91,30.02,29.87,5,1,11,0.05
2012-10-4,79.0,63.5,54.0,62.0,57.2,54.0,100,84,45,30.05,29.97,13,2,19,0.11
2012-10-5,59.0,49.2,41.0,59.0,47.8,41.0,100,95,73,30.10,30.00,7,1,12,0.20
2012-10-6,47.0,41.0,33.0,41.0,37.0,33.0,100,86,68,30.12,29.99,11,2,16,0.05
2012-10-7,46.0,41.9,35.0,44.0,40.8,34.0,100,96,80,30.14,30.07,8,2,12,0.10
2012-10-8,56.0,41.6,28.0,39.0,31.6,27.0,100,73,34,30.18,30.04,7,1,13,0.05
2012-10-9,63.0,50.8,38.0,44.0,38.7,31.0,84,65,45,30.06,29.80,10,2,17,0.00
2012-10-10,55.0,43.9,33.0,48.0,38.3,30.0,100,83,47,30.15,29.80,16,5,25,0.26
2012-10-11,63.0,47.4,32.0,47.0,35.4,32.0,100,69,34,30.16,30.03,12,2,18,0.01
2012-10-12,55.0,44.8,32.0,46.0,35.7,25.0,100,74,34,30.43,30.16,7,1,12,0.00
2012-10-13,65.0,50.1,32.0,64.0,46.9,31.0,100,89,69,30.31,29.84,7,2,20,0.37
2012-10-14,73.0,65.9,55.0,67.0,63.3,55.0,100,92,65,29.85,29.43,12,4,34,0.41
2012-10-15,52.0,47.5,37.0,50.0,45.4,36.0,100,93,71,29.95,29.71,11,4,17,0.03
2012-10-16,63.0,47.8,31.0,50.0,40.8,31.0,100,80,54,29.96,29.63,10,2,17,0.01
2012-10-17,74.0,61.9,54.0,59.0,53.5,49.0,100,76,46,29.64,29.40,14,4,22,0.26
2012-10-18,58.0,52.6,45.0,58.0,46.8,33.0,100,84,40,29.59,29.29,9,3,20,0.65
2012-10-19,50.0,45.5,44.0,50.0,45.5,44.0,100,100,100,29.58,29.46,6,1,13,0.24
2012-10-20,58.0,47.9,42.0,51.0,45.2,42.0,100,91,62,29.90,29.58,10,2,16,0.26
2012-10-21,65.0,48.7,34.0,52.0,44.8,34.0,100,88,62,30.07,29.90,7,1,12,0.01
2012-10-22,69.0,56.9,45.0,64.0,54.9,45.0,100,94,70,30.01,29.88,8,1,10,0.11
2012-10-23,68.0,62.3,57.0,66.0,61.6,57.0,100,97,87,29.95,29.88,8,1,13,0.11
2012-10-24,79.0,67.9,60.0,66.0,62.5,60.0,100,85,62,29.98,29.89,9,2,13,0.00
2012-10-25,77.0,68.0,58.0,64.0,60.6,54.0,96,78,62,29.92,29.75,14,4,27,0.00
2012-10-26,56.0,45.8,40.0,54.0,40.2,35.0,100,82,60,30.24,29.88,13,5,19,0.41
2012-10-27,52.0,42.0,32.0,39.0,34.5,32.0,100,77,48,30.24,30.14,9,2,13,0.01
2012-10-28,48.0,41.1,32.0,37.0,32.6,28.0,100,73,55,30.22,30.14,7,2,16,0.00
2012-10-29,49.0,41.6,34.0,33.0,29.0,25.0,82,62,41,30.16,29.87,14,6,22,0.00
2012-10-30,43.0,40.8,39.0,40.0,35.8,27.0,100,84,54,29.87,29.60,20,9,29,0.18
2012-10-31,44.0,41.1,39.0,42.0,38.5,-99.9,100,94,86,29.75,29.62,13,8,25,0.02
2012-11-1,51.0,41.6,30.0,41.0,32.8,25.0,100,74,41,29.83,29.74,15,4,20,0.01
2012-11-2,48.0,39.2,29.0,37.0,33.5,29.0,100,82,55,30.09,29.82,10,2,17,0.00
2012-11-3,43.0,34.0,24.0,37.0,30.4,24.0,100,88,67,30.19,30.09,5,0,6,0.00
2012-11-4,45.0,34.4,25.0,35.0,30.9,25.0,100,88,60,30.19,30.12,10,1,14,0.00
2012-11-5,46.0,30.5,19.0,33.0,26.4,19.0,100,87,57,30.18,30.09,4,0,6,0.00
2012-11-6,47.0,34.0,19.0,37.0,29.1,19.0,100,84,57,30.10,29.89,7,1,11,0.01
2012-11-7,50.0,40.5,28.0,39.0,34.0,28.0,100,79,55,30.12,29.89,5,1,10,0.00
2012-11-8,47.0,35.4,24.0,43.0,33.0,24.0,100,92,73,30.19,30.10,6,0,10,0.00
2012-11-9,59.0,44.9,28.0,47.0,38.9,28.0,100,82,56,30.13,29.99,7,2,14,0.01
2012-11-10,68.0,59.7,52.0,56.0,48.7,44.0,79,67,57,30.04,29.93,11,3,19,0.01
2012-11-11,70.0,61.7,54.0,54.0,49.8,47.0,77,65,56,30.03,29.85,20,8,26,0.00
2012-11-12,62.0,37.8,32.0,55.0,31.2,23.0,100,78,60,30.27,29.87,15,7,19,0.03
2012-11-13,42.0,32.0,23.0,27.0,21.4,-99.9,100,72,53,30.48,30.27,11,3,18,0.00
2012-11-14,42.0,29.6,21.0,33.0,25.3,-99.9,100,87,59,30.53,30.37,6,0,8,0.00
2012-11-15,47.0,30.8,20.0,36.0,27.3,20.0,100,89,60,30.39,30.29,3,0,6,0.00
2012-11-16,55.0,34.1,21.0,39.0,28.3,21.0,100,84,41,30.46,30.34,3,0,7,0.01
2012-11-17,55.0,36.1,21.0,39.0,28.6,-99.9,100,82,51,30.55,30.46,5,0,8,0.01
2012-11-18,58.0,40.4,26.0,40.0,33.0,26.0,100,79,37,30.46,30.34,5,0,8,0.00
2012-11-19,58.0,40.6,29.0,41.0,34.8,29.0,100,83,49,30.34,30.11,5,0,7,0.00
2012-11-20,54.0,48.0,44.0,48.0,44.3,39.0,100,87,72,30.13,30.03,2,0,7,0.00
2012-11-21,55.0,41.7,35.0,52.0,41.1,35.0,100,98,84,30.23,30.12,5,0,7,0.01
2012-11-22,61.0,49.1,36.0,52.0,43.8,36.0,100,84,59,30.12,29.79,12,3,20,0.01
2012-11-23,54.0,37.3,32.0,53.0,31.2,23.0,98,79,68,30.09,29.76,18,9,33,0.03
2012-11-24,32.0,31.4,30.0,27.0,25.3,24.0,82,78,71,30.16,30.09,16,6,18,0.00
2012-11-25,44.0,36.0,26.0,31.0,28.2,24.0,100,75,55,29.98,29.82,10,3,12,0.00
2012-11-26,39.0,31.5,22.0,36.0,26.3,22.0,100,83,57,30.26,29.98,8,1,11,0.00
2012-11-27,39.0,30.6,22.0,27.0,23.3,18.0,89,75,54,30.35,30.23,6,1,11,0.00
2012-11-28,45.0,30.4,23.0,31.0,22.9,17.0,96,74,56,30.32,30.21,13,2,14,0.00
2012-11-29,50.0,37.3,23.0,36.0,29.8,22.0,95,76,50,30.28,30.12,9,1,14,0.00
2012-11-30,51.0,42.1,33.0,38.0,34.5,31.0,92,75,55,30.13,30.04,5,0,9,0.00
2012-12-1,60.0,45.7,31.0,54.0,42.2,31.0,100,88,72,30.15,29.93,9,2,19,0.01
2012-12-2,59.0,54.8,46.0,59.0,53.0,45.0,100,94,74,30.05,29.88,8,1,17,0.21
2012-12-3,64.0,58.2,45.0,64.0,57.7,45.0,100,98,89,30.04,29.84,13,4,17,0.01
2012-12-4,64.0,49.8,36.0,62.0,46.6,36.0,100,90,51,30.16,29.87,9,2,17,0.64
2012-12-5,43.0,33.4,26.0,38.0,27.3,24.0,97,79,58,30.38,30.16,9,2,14,0.00
2012-12-6,41.0,35.3,27.0,39.0,31.3,-99.9,95,88,78,30.24,29.88,6,2,14,0.00
2012-12-7,46.0,42.6,40.0,46.0,42.5,39.0,100,100,94,29.92,29.82,2,0,3,0.10
2012-12-8,43.0,39.5,34.0,43.0,39.2,32.0,100,99,94,30.08,29.78,4,0,8,0.16
2012-12-9,43.0,37.6,34.0,43.0,37.4,33.0,100,99,96,30.09,29.65,6,2,12,0.16
2012-12-10,42.0,34.6,32.0,42.0,34.5,32.0,100,100,96,29.87,29.63,9,4,19,0.04
2012-12-11,34.0,30.5,25.0,32.0,26.6,24.0,100,86,68,30.12,29.85,7,1,16,0.05
2012-12-12,44.0,31.8,23.0,31.0,27.0,23.0,100,84,58,30.31,30.12,6,1,11,0.01
2012-12-13,46.0,35.7,27.0,32.0,28.4,26.0,94,76,52,30.30,30.12,10,2,21,0.00
2012-12-14,49.0,34.3,24.0,37.0,30.2,24.0,100,86,60,30.21,30.07,6,0,8,0.00
2012-12-15,49.0,41.9,31.0,49.0,40.1,31.0,100,94,75,30.07,29.60,10,2,17,0.12
2012-12-16,50.0,46.1,40.0,50.0,46.1,40.0,100,100,100,29.67,29.57,11,2,16,0.07
2012-12-17,41.0,38.9,37.0,40.0,37.9,36.0,100,96,87,29.70,29.60,4,0,10,0.01
2012-12-18,39.0,35.4,29.0,38.0,34.4,29.0,100,97,87,29.77,29.62,8,1,12,0.01
2012-12-19,42.0,39.4,35.0,41.0,38.3,35.0,100,96,86,30.03,29.67,6,1,10,0.01
2012-12-20,50.0,41.0,34.0,50.0,40.3,34.0,100,97,83,29.91,29.05,11,5,21,0.82
2012-12-21,36.0,33.6,32.0,36.0,31.4,27.0,100,91,83,30.01,29.12,25,13,35,0.55
2012-12-22,32.0,28.1,22.0,28.0,25.1,21.0,99,89,81,30.14,29.97,16,4,22,0.08
2012-12-23,36.0,25.1,16.0,30.0,23.2,16.0,100,93,72,29.98,29.87,4,0,8,0.02
2012-12-24,34.0,28.7,23.0,31.0,26.6,23.0,100,92,84,29.99,29.76,4,1,11,0.01
2012-12-25,36.0,28.0,19.0,26.0,23.2,19.0,100,83,65,30.24,30.00,5,1,13,0.00
2012-12-26,29.0,27.8,25.0,28.0,25.5,21.0,100,91,75,30.18,29.83,8,3,17,0.00
2012-12-27,35.0,27.4,24.0,29.0,24.0,20.0,100,87,73,30.12,29.96,10,1,13,0.12
2012-12-28,31.0,28.0,24.0,31.0,27.4,24.0,100,98,92,30.11,29.85,3,0,8,0.06
2012-12-29,32.0,29.1,28.0,31.0,28.8,27.0,100,98,89,30.10,29.79,11,2,13,0.02
2012-12-30,29.0,23.0,17.0,28.0,19.5,15.0,97,87,71,30.32,30.10,10,2,14,0.06
2012-12-31,36.0,30.5,24.0,32.0,26.5,21.0,98,85,73,30.15,29.94,8,2,14,0.05
2013-1-1,33.0,25.3,11.0,25.0,17.4,-99.9,96,79,60,30.11,30.01,11,2,16,0.02